Location: St Paul
(33.4390°N, 83.7350°W)
Time: 05:20:02
(UTC-04:00)

Cosmos 1339 Rocket - Pass Details

Date: 06 October 2017
Orbit: 942 x 1005 km, 82.9° (Epoch: 23 October)

Event Time Altitude Azimuth Distance (km) Brightness Sun altitude
Rises 21:03:33 0° 355° (N) 3,735 7.7 -24.0°
Reaches altitude 10° 21:06:06 10° 357° (N) 2,779 7.0 -24.5°
Maximum altitude 21:12:30 80° 83° (E) 1,014 4.4 -25.8°
Enters shadow 21:15:11 37° 166° (SSE) 1,483 5.2 -26.4°
